Regional Weather Roundup
Issued by NWS

Home | Current Version | Previous Version | Text Only | Print | Product List | Glossary Off
Versions: 1 2 3 4 5 6 7 8 9 10 11 12 13 14 15 16 17 18 19 20 21 22 23 24 25 26 27 28 29 30 31 32 33 34 35 36 37 38 39 40 41 42 43 44 45 46 47 48 49 50

000
ASUS44 KMEG 280500
RWRTN
TENNESSEE HOURLY STATE WEATHER ROUNDUP
NATIONAL WEATHER SERVICE MEMPHIS TN
1100 PM CST TUE JAN 27 2015

TNZ002-004-019-021-049-052-054-088>092-280600-
WEST TENNESSEE

CITY           SKY/WX    TMP DP  RH WIND       PRES   REMARKS
MEMPHIS INTL   CLEAR     43  32  65 E9        30.20S
NWS MEMPHIS      N/A     41 N/A N/A MISG        N/A
JACKSON        CLEAR     34  28  79 E7        30.23S WCI  28
DYERSBURG      CLEAR     36  19  51 E7        30.24F WCI  30
UNION CITY     CLEAR     32  28  86 CALM      30.23S
PARIS          CLEAR     25  21  86 NE3       30.24S
LEXINGTON      CLEAR     28  27  93 NE3       30.22S
SAVANNAH         N/A     30  27  86 CALM      30.23S
$$

TNZ008-025-027-028-033-062-065-066-280600-
NORTH MIDDLE TENNESSEE

CITY           SKY/WX    TMP DP  RH WIND       PRES   REMARKS
NASHVILLE      CLOUDY    35  30  82 N7        30.24R WCI  29
CLARKSVILLE    CLOUDY    34  29  82 N5        30.25R WCI  30
COOKEVILLE     MOCLDY    30  27  86 N6        30.17F WCI  24
CROSSVILLE     CLOUDY    30  25  81 N7        30.15S WCI  23
$$

TNZ061-075-076-078-094-096-097-280600-
SOUTH MIDDLE TENNESSEE

CITY           SKY/WX    TMP DP  RH WIND       PRES   REMARKS
FAYETTEVILLE   CLOUDY    34  25  69 N14       30.18S WCI  24
TULLAHOMA        N/A     32  27  80 N6        30.18F WCI  26
WINCHESTER     CLOUDY    34  27  75 N12       30.19S WCI  25
SHELBYVILLE    CLOUDY    34  30  86 N6        30.21F WCI  29
$$

TNZ017-018-042-046-047-280600-
NORTHEAST TENNESSEE

CITY           SKY/WX    TMP DP  RH WIND       PRES   REMARKS
TRI CITIES     PTCLDY    27  12  53 NW8       30.14R WCI  19
ELIZABETHTON   PTCLDY    25  18  74 SW6       30.12R WCI  18
$$

TNZ012-013-036-069-073-074-280600-
CENTRAL EAST TENNESSEE

CITY           SKY/WX    TMP DP  RH WIND       PRES   REMARKS
KNOXVILLE      CLOUDY    32  22  66 N8        30.18R WCI  25
OAK RIDGE      CLOUDY    33  24  69 CALM      30.20R
$$

TNZ083-085-099-280600-
SOUTHEAST TENNESSEE

CITY           SKY/WX    TMP DP  RH WIND       PRES   REMARKS
CHATTANOOGA    CLOUDY    37  28  70 N16       30.19R WCI  28
$$

SKY/WX REPORTED AS FAIR MEANS FEW OR NO CLOUDS BELOW
12 THOUSAND FEET.



USA.gov is the U.S. government's official web portal to all federal, state and local government web resources and services.